Location: *
(18.5200°S, 46.4500°E)
Time: 02:15:26
(UTC+00:00)

SMAP - Pass Details

Date: 19 July 2019
Orbit: 681 x 683 km, 98.1° (Epoch: 24 August)

Event Time Altitude Azimuth Distance (km) Brightness Sun altitude
Rises 15:15:56 0° 176° (S) 3,060 6.2 -9.9°
Reaches altitude 10° 15:18:14 10° 180° (S) 2,139 5.4 -10.4°
Maximum altitude 15:22:46 53° 256° (WSW) 846 3.9 -11.5°
Drops below altitude 10° 15:27:17 10° 332° (NNW) 2,119 6.3 -12.5°
Sets 15:29:33 0° 337° (NNW) 3,028 7.0 -13.0°
